Weather History for CYIV - May, 2013

Change the Weather History Date:

Tuesday, May 14, 2013

  Actual Average Record
Temperature  
Mean Temperature 44 °F -  
Max Temperature 55 °F 59 °F 77 °F (2003)
Min Temperature 34 °F 40 °F 24 °F (2004)
Degree Days  
Heating Degree Days 20    
Moisture  
Dew Point 41 °F    
Average Humidity 75    
Maximum Humidity 100    
Minimum Humidity 58    
Precipitation  
Precipitation 0.00 in -6.96 in - ()
Sea Level Pressure  
Sea Level Pressure 29.43 in    
Wind  
Wind Speed 5 mph ()    
Max Wind Speed 13 mph    
Max Gust Speed 18 mph    
Visibility 14.7 miles    
Events Rain    
Averages and records for this station are not official NWS values.
T = Trace of Precipitation, MM = Missing Value Source: Averaged Metar Reports

Daily Weather History Graph

Daily Weather History Graph

Search for Another Location

Airport or City:

Trip Planner

Search our weather history database for the weather conditions in past years. The results will help you decide how hot, cold, wet, or windy it might be!

Date:

Astronomy

May. 14, 2013 Rise Set
Actual Time 5:17 AM CDT 9:13 PM CDT
Civil Twilight 4:32 AM CDT 9:58 PM CDT
Nautical Twilight 3:28 AM CDT 11:04 PM CDT
Astronomical Twilight 1:47 AM CDT 12:42 AM CDT
Moon 8:59 AM CDT (5/14) 12:21 AM CDT (5/14)
Length of Visible Light 17h 26m
Length of Day
15h 55m
Waxing Crescent, 19% of the Moon is Illuminated
May 14
Waxing Crescent
May 17
First Quarter
May 24
Full
May 31
Last Quarter
Jun 8
New

Hourly Weather History & Observations

Time (CDT) Temp. Windchill Dew Point Humidity Pressure Visibility Wind Dir Wind Speed Gust Speed Precip Events Conditions
12:00 AM 46.4 °F 43.5 °F 35.6 °F 66% 29.48 in 15.0 mi SE 5.8 mph - N/A   Partly Cloudy
1:00 AM 46 °F - 36 °F 59% 29.47 in 15 mi SSE 8.1 mph - -   Scattered Clouds
1:00 AM 46.4 °F 42.9 °F 35.6 °F 66% 29.47 in 15.0 mi SSE 6.9 mph - N/A   Partly Cloudy
2:00 AM 41.0 °F 39.0 °F 37.4 °F 87% 29.46 in 15.0 mi SE 3.5 mph - N/A   Partly Cloudy
3:00 AM 44.6 °F 42.2 °F 37.4 °F 76% 29.46 in 15.0 mi South 4.6 mph - N/A   Partly Cloudy
4:00 AM 37.4 °F - 35.6 °F 93% 29.47 in 15.0 mi SE 2.3 mph - N/A   Partly Cloudy
5:00 AM 35.6 °F 32.8 °F 35.6 °F 100% 29.46 in 15.0 mi South 3.5 mph - N/A   Partly Cloudy
6:00 AM 37.4 °F - 35.6 °F 93% 29.44 in 15.0 mi SE 2.3 mph - N/A   Partly Cloudy
7:00 AM 47 °F - 40 °F 68% 29.43 in 15 mi SE 3.5 mph - -   Scattered Clouds
7:00 AM 46.4 °F 45.2 °F 39.2 °F 76% 29.43 in 15.0 mi SE 3.5 mph - N/A   Mostly Cloudy
8:00 AM 50.0 °F - 39.2 °F 66% 29.42 in 15.0 mi SE 3.5 mph - N/A   Mostly Cloudy
9:00 AM 50.0 °F - 39.2 °F 66% 29.40 in 15.0 mi SE 6.9 mph - N/A   Overcast
9:54 AM - - - N/A% - 15.0 mi SSE 5.8 mph - N/A Rain Light Rain Showers
10:00 AM 50.0 °F - 41.0 °F 71% 29.40 in 15.0 mi SSE 5.8 mph - N/A Rain Light Rain Showers
10:25 AM - - - N/A% - 15.0 mi SE 8.1 mph - N/A   Overcast
11:00 AM 51.8 °F - 41.0 °F 67% 29.39 in 15.0 mi South 2.3 mph - N/A   Overcast
11:48 AM - - - N/A% - 15.0 mi SSW 8.1 mph 18.4 mph N/A Rain Light Rain Showers
12:00 PM 51.8 °F - 41.0 °F 67% 29.37 in 15.0 mi South 8.1 mph - N/A Rain Light Rain Showers
12:17 PM - - - N/A% - 15.0 mi South 4.6 mph - N/A   Overcast
1:00 PM 51.8 °F - 42.8 °F 71% 29.37 in 15.0 mi Calm Calm - N/A   Overcast
1:17 PM - - - N/A% - 15.0 mi NE 2.3 mph - N/A Rain Light Rain Showers
2:00 PM 50.0 °F - 44.6 °F 82% 29.37 in 12.0 mi WNW 4.6 mph - N/A Rain Light Rain Showers
3:00 PM 51.8 °F - 46.4 °F 82% 29.38 in 8.0 mi East 3.5 mph - N/A Rain Light Rain Showers
3:53 PM - - - N/A% - 15.0 mi NW 3.5 mph - N/A   Overcast
4:00 PM 48.2 °F - 46.4 °F 93% 29.39 in 15.0 mi NNW 3.5 mph - N/A   Overcast
5:00 PM 53.6 °F - 48.2 °F 82% 29.38 in 15.0 mi SSW 2.3 mph - N/A   Overcast
6:00 PM 55.4 °F - 48.2 °F 77% 29.40 in 15.0 mi South 2.3 mph - N/A   Overcast
7:00 PM 54 °F - 50 °F 80% 29.40 in 15 mi WSW 3.5 mph - -   Partly Cloudy
7:00 PM 55.4 °F - 50.0 °F 82% 29.40 in 15.0 mi WSW 2.3 mph - N/A   Mostly Cloudy
8:00 PM 51.8 °F - 42.8 °F 71% 29.43 in 15.0 mi NW 4.6 mph - N/A   Mostly Cloudy
9:00 PM 55.4 °F - 41.0 °F 58% 29.47 in 15.0 mi NNW 12.7 mph - N/A   Mostly Cloudy
10:00 PM 50.0 °F - 39.2 °F 66% 29.52 in 15.0 mi NNW 9.2 mph - N/A   Mostly Cloudy
11:00 PM 48.2 °F - 35.6 °F 62% 29.55 in 15.0 mi North 10.4 mph - N/A   Mostly Cloudy